Meteo Giornale » Osservazioni meteo Repubblica Ceca » Praha-Ruzyne

ore: 17:30 - Osservazioni Meteo Praha-Ruzyne
Lat. 50° 6' N Lon. 14° 15' E Alt. 365 metri s.l.m.

sereno Europe/Prague

10 °C

Sereno

Temp. 24 Ore

0 °C

11 °C

Est

13 Km/h

Dew point -4 °C

Umidità 36 %

Visibilità  10 Km

Il sole sorge alle ore 05:49

Il sole tramonta alle ore 18:27

Data e Ora Cielo e Fenomeni T °C DP °C Um. % Pres. hPa Vis. km Vento km/h
Oggi h: 17:30 sereno Sereno 10 -4 36 1024 10 E 13
Oggi h: 16:30 sereno Sereno 10 -5 34 1024 10 E/NE 11.1
Oggi h: 16:00 sereno Sereno 10 -5 34 1025 10 E/NE 16.7
Oggi h: 15:30 sereno Sereno 10 -5 34 1025 10 E 14.8
Oggi h: 15:00 sereno Sereno 11 -4 34 1025 10 E 9.3
Oggi h: 14:30 sereno Sereno 10 -5 34 1025 10 E/NE 16.7
Oggi h: 14:00 sereno Sereno 10 -4 36 1025 10 E/NE 16.7
Oggi h: 13:30 sereno Sereno 9 -3 42 1025 10 E 16.7
Oggi h: 13:00 poco_nuvoloso Poco Nuvoloso 9 -3 42 1025 10 E/NE 16.7
Oggi h: 12:30 poco_nuvoloso Poco Nuvoloso 9 -3 42 1025 10 E/NE 14.8
Oggi h: 12:00 poco_nuvoloso Poco Nuvoloso 8 -3 45 1025 10 E/NE 18.5
Oggi h: 11:30 poco_nuvoloso Poco Nuvoloso 8 -3 45 1025 10 E 16.7
Oggi h: 11:00 poco_nuvoloso Poco Nuvoloso 8 -2 49 1025 10 E/NE 13
Oggi h: 10:30 poco_nuvoloso Poco Nuvoloso 8 -2 49 1025 10 E/NE 16.7
Oggi h: 10:00 poco_nuvoloso Poco Nuvoloso 7 -3 48 1025 10 E 20.3
Oggi h: 09:30 sereno Sereno 7 -2 52 1025 10 E 16.7
Oggi h: 09:00 sereno Sereno 6 -1 60 1024 10 E/NE 14.8
Oggi h: 08:30 sereno Sereno 5 -1 65 1024 10 E 14.8
Oggi h: 08:00 sereno Sereno 4 -0 75 1024 10 E/NE 9.3
Oggi h: 07:30 sereno Sereno 4 0 75 1023 10 N 5.5
Oggi h: 07:00 sereno Sereno 3 -0 80 1023 10 N 5.5
Oggi h: 06:30 sereno Sereno 2 -1 80 1023 10 N 3.7
Oggi h: 06:00 sereno Sereno 0 -1 92 1023 10 N 0
Oggi h: 05:30 sereno Sereno 0 -2 86 1023 10 N 1.8
Oggi h: 05:00 sereno Sereno -0 -2 86 1023 10 N 0
Oggi h: 04:30 sereno Sereno 1 -2 80 1023 10 N 3.7
Oggi h: 04:00 sereno Sereno 1 -2 80 1022 10 N 5.5
Oggi h: 03:30 sereno Sereno 2 -2 74 1022 10 N 3.7
Oggi h: 03:00 sereno Sereno 2 -2 74 1022 10 N 7.4
Oggi h: 03:30 sereno Sereno 2 -2 74 1023 10 N 7.4
Oggi h: 03:00 sereno Sereno 3 -2 69 1023 10 N 5.5
Oggi h: 01:30 sereno Sereno 3 -2 69 1023 10 N 5.5
Oggi h: 01:00 sereno Sereno 3 -2 69 1023 10 N 7.4
Oggi h: 00:30 sereno Sereno 4 -2 64 1023 10 N/NO 7.4
Oggi h: 00:00 sereno Sereno 4 -2 64 1022 10 NO 11.1
Ieri h: 23:30 sereno Sereno 5 -1 65 1022 10 N/NO 14.8
Ieri h: 23:00 sereno Sereno 4 -1 69 1023 10 N 9.3
Ieri h: 22:30 sereno Sereno 5 -1 65 1023 10 N 9.3
Ieri h: 22:00 sereno Sereno 5 -2 60 1023 10 N/NO 11.1
Ieri h: 21:30 sereno Sereno 5 -2 60 1023 10 N/NO 9.3
Ieri h: 21:00 sereno Sereno 6 -2 56 1023 10 NO 9.3
Ieri h: 20:30 sereno Sereno 6 -3 52 1023 10 N 5.5
Ieri h: 20:00 sereno Sereno 6 -3 52 1023 10 N 5.5
Ieri h: 19:30 sereno Sereno 7 -3 48 1023 10 N 7.4
Ieri h: 19:00 sereno Sereno 8 -3 45 1023 10 N/NO 13
Ieri h: 18:30 sereno Sereno 9 -2 45 1023 10 N 13
Ieri h: 18:00 sereno Sereno 10 -1 46 1023 10 N/NO 14.8